Weather History for KSLC - August, 2012

Change the Weather History Date:

Sunday, August 12, 2012

  Actual Average Record
Temperature  
Mean Temperature 82 °F 78 °F  
Max Temperature 98 °F 92 °F 102 °F (1940)
Min Temperature 65 °F 65 °F 49 °F (1935)
Degree Days  
Heating Degree Days 0 0  
Month to date heating degree days 0 0  
Since 1 June heating degree days 38 48  
Since 1 July heating degree days 0 2  
Cooling Degree Days 17 13  
Month to date cooling degree days 214 169  
Year to date cooling degree days 1134 831  
Since 1 June cooling degree days 1056 781  
Growing Degree Days 31 (Base 50)    
Moisture  
Dew Point 43 °F    
Average Humidity 30    
Maximum Humidity 48    
Minimum Humidity 11    
Precipitation  
Precipitation 0.00 in 0.02 in 0.50 in (1930)
Month to date precipitation T 0.25  
Year to date precipitation 7.25 10.07  
Snow  
Snow 0.00 in 0.00 in - ()
Month to date snowfall 0.0 0.0  
Since 1 July snowfall 0.0 0.0  
Snow Depth 0.00 in    
Sea Level Pressure  
Sea Level Pressure 29.91 in    
Wind  
Wind Speed 6 mph (SSE)    
Max Wind Speed 13 mph    
Max Gust Speed 18 mph    
Visibility 10 miles    
Events      
T = Trace of Precipitation, MM = Missing Value Source: NWS Daily Summary

Daily Weather History Graph

Daily Weather History Graph

Search for Another Location

Airport or City:

Trip Planner

Search our weather history database for the weather conditions in past years. The results will help you decide how hot, cold, wet, or windy it might be!

Date:

Astronomy

Aug. 12, 2012 Rise Set
Actual Time 6:35 AM MDT 8:29 PM MDT
Civil Twilight 6:06 AM MDT 8:58 PM MDT
Nautical Twilight 5:29 AM MDT 9:34 PM MDT
Astronomical Twilight 4:50 AM MDT 10:13 PM MDT
Moon 1:51 AM MDT (8/12) 4:58 PM MDT (8/12)
Length of Visible Light 14h 52m
Length of Day
13h 53m
Waning Crescent, 23% of the Moon is Illuminated
Aug 12
Waning Crescent
Aug 17
New
Aug 24
First Quarter
Aug 31
Full
Sep 8
Last Quarter

Hourly Weather History & Observations

Time (MDT) Temp. Dew Point Humidity Pressure Visibility Wind Dir Wind Speed Gust Speed Precip Events Conditions
12:53 AM 73.0 °F 44.1 °F 35% 29.91 in 10.0 mi South 4.6 mph - N/A   Mostly Cloudy
1:53 AM 71.1 °F 46.0 °F 41% 29.93 in 10.0 mi SSW 6.9 mph - N/A   Mostly Cloudy
2:53 AM 70.0 °F 44.1 °F 39% 29.93 in 10.0 mi ESE 6.9 mph - N/A   Scattered Clouds
3:53 AM 68.0 °F 46.0 °F 45% 29.94 in 10.0 mi South 5.8 mph - N/A   Partly Cloudy
4:53 AM 68.0 °F 48.0 °F 49% 29.94 in 10.0 mi SSE 5.8 mph - N/A   Partly Cloudy
5:53 AM 66.9 °F 46.9 °F 49% 29.95 in 10.0 mi SSE 6.9 mph - N/A   Partly Cloudy
6:53 AM 68.0 °F 44.1 °F 42% 29.95 in 10.0 mi SE 10.4 mph - N/A   Scattered Clouds
7:53 AM 71.1 °F 46.0 °F 41% 29.95 in 10.0 mi South 8.1 mph - N/A   Partly Cloudy
8:53 AM 77.0 °F 43.0 °F 30% 29.95 in 10.0 mi ESE 6.9 mph - N/A   Scattered Clouds
9:53 AM 80.1 °F 46.0 °F 30% 29.97 in 10.0 mi SE 6.9 mph - N/A   Scattered Clouds
10:53 AM 82.9 °F 44.1 °F 25% 29.95 in 10.0 mi SSE 6.9 mph - N/A   Scattered Clouds
11:53 AM 88.0 °F 41.0 °F 19% 29.94 in 10.0 mi Variable 4.6 mph - N/A   Mostly Cloudy
12:53 PM 91.0 °F 43.0 °F 19% 29.92 in 10.0 mi Variable 3.5 mph - N/A   Mostly Cloudy
1:53 PM 93.0 °F 46.9 °F 20% 29.90 in 10.0 mi North 5.8 mph - N/A   Mostly Cloudy
2:53 PM 95.0 °F 45.0 °F 18% 29.88 in 10.0 mi North 10.4 mph - N/A   Mostly Cloudy
3:53 PM 96.1 °F 34.0 °F 11% 29.86 in 10.0 mi NNW 9.2 mph - N/A   Mostly Cloudy
4:53 PM 96.1 °F 35.1 °F 12% 29.86 in 10.0 mi NW 11.5 mph - N/A   Mostly Cloudy
5:53 PM 93.9 °F 33.1 °F 12% 29.86 in 10.0 mi NNW 9.2 mph - N/A   Mostly Cloudy
6:53 PM 91.9 °F 42.1 °F 18% 29.86 in 10.0 mi WSW 9.2 mph - N/A   Mostly Cloudy
7:53 PM 90.0 °F 39.9 °F 17% 29.85 in 10.0 mi Calm Calm - N/A   Mostly Cloudy
8:53 PM 86.0 °F 44.1 °F 23% 29.84 in 10.0 mi Variable 4.6 mph - N/A   Mostly Cloudy
9:53 PM 82.0 °F 45.0 °F 27% 29.87 in 10.0 mi South 5.8 mph - N/A   Mostly Cloudy
10:53 PM 79.0 °F 42.1 °F 27% 29.88 in 10.0 mi ESE 4.6 mph - N/A   Mostly Cloudy
11:53 PM 78.1 °F 41.0 °F 27% 29.88 in 10.0 mi SSE 3.5 mph - N/A   Mostly Cloudy